SCP
0 0 0 0 0 0 0 0 0 0 0 0 0 0 0 0 0 0 0 0 0 0 0 0 0 0 0 0 0 1 1 1 1 1 2 2 2 1 1 1 1 1 1 1 1 1 1 1 1
0 0 0 0 0 0 0 0 0 0 0 0 0 0 0 0 0 0 0 0 0 0 0 0 0 0 0 0 0 0 0 1 1 1 1 1 2 2 1 1 1 1 1 1 1 1 1 1 1
0 0 0 0 0 0 0 0 0 0 0 0 0 0 0 0 0 0 0 0 0 0 0 0 0 0 0 0 0 0 0 0 0 0 1 1 1 2 2 2 2 2 1 1 1 1 1 1 1
0 0 0 0 0 0 0 0 0 0 0 0 0 0 0 0 0 0 0 0 0 0 0 0 0 0 0 0 0 0 0 0 0 0 0 1 1 1 2 2 2 2 2 2 2 1 1 1 1
0 0 0 0 0 0 0 0 0 0 0 0 0 0 0 0 0 0 0 0 0 0 0 0 0 0 0 0 0 0 0 0 0 0 0 0 0 1 1 1 1 2 2 2 2 2 2 1 1
0 0 0 0 0 0 0 0 0 0 0 0 0 0 0 0 0 0 0 0 0 0 0 0 0 0 0 0 0 0 0 0 0 0 0 0 0 0 0 0 1 1 1 2 2 2 2 2 2
0 0 0 0 0 0 0 0 0 0 0 0 0 0 0 0 0 0 0 0 0 0 0 0 0 0 0 0 0 0 0 0 0 0 0 0 0 0 0 0 0 0 1 1 2 2 2 2 2
0 0 0 0 0 0 0 0 0 0 0 0 0 0 0 0 0 0 0 0 0 0 0 0 0 0 0 0 0 0 0 0 0 0 0 0 0 0 0 0 0 0 0 0 1 1 2 2 2
0 0 0 0 0 0 0 0 0 0 0 0 0 0 0 0 0 0 0 0 0 0 0 0 0 0 0 0 0 0 0 0 0 0 0 0 0 0 0 0 0 0 0 0 0 1 1 1 2
0 0 0 0 0 0 0 0 0 0 0 0 0 0 0 0 0 0 0 0 0 0 0 0 0 0 0 0 0 0 0 0 0 0 0 0 0 0 0 0 0 0 0 0 0 0 0 1 1
0 0 0 0 0 0 0 0 0 0 0 0 0 0 0 0 0 0 0 0 0 0 0 0 0 0 0 0 0 0 0 0 0 0 0 0 0 0 0 0 0 0 0 0 0 0 0 0 0
0 0 0 0 0 0 0 0 0 0 0 0 0 0 0 0 0 0 0 0 0 0 0 0 0 0 0 0 0 0 0 0 0 0 0 0 0 0 0 0 0 0 0 0 0 0 0 0 0
0 0 0 0 0 0 0 0 0 0 0 0 0 0 0 0 0 0 0 0 0 0 0 0 0 0 0 0 0 0 0 0 0 0 0 0 0 0 0 0 0 0 0 0 0 0 0 0 0
0 0 0 0 0 0 0 0 0 0 0 0 0 0 0 0 0 0 0 0 0 0 0 0 0 0 0 0 0 0 0 0 0 0 0 0 0 0 0 0 0 0 0 0 0 0 0 0 0
0 0 0 0 0 0 0 0 0 0 0 0 0 0 0 0 0 0 0 0 0 0 0 0 0 0 0 0 0 0 0 0 0 0 0 0 0 0 0 0 0 0 0 0 0 0 0 0 0
0 0 0 0 0 0 0 0 0 0 0 0 0 0 0 0 0 0 0 0 0 0 0 0 0 0 0 0 0 0 0 0 0 0 0 0 0 0 0 0 0 0 0 0 0 0 0 0 0
0 0 0 0 0 0 0 0 0 0 0 0 0 0 0 0 0 0 0 0 0 0 0 0 0 0 0 0 0 0 0 0 0 0 0 0 0 0 0 0 0 0 0 0 0 0 0 0 0
0 0 0 0 0 0 0 0 0 0 0 0 0 0 0 0 0 0 0 0 0 0 0 0 0 0 0 0 0 0 0 0 0 0 0 0 0 0 0 0 0 0 0 0 0 0 0 0 0
0 0 0 0 0 0 0 0 0 0 0 0 0 0 0 0 0 0 0 0 0 0 0 0 0 0 0 0 0 0 0 0 0 0 0 0 0 0 0 0 0 0 0 0 0 0 0 0 0
0 0 0 0 0 0 0 0 0 0 0 0 0 0 0 0 0 0 0 0 0 0 0 0 0 0 0 0 0 0 0 0 0 0 0 0 0 0 0 0 0 0 0 0 0 0 0 0 0
0 0 0 0 0 0 0 0 0 0 0 0 0 0 0 0 0 0 0 0 0 0 0 0 0 0 0 0 0 0 0 0 0 0 0 0 0 0 0 0 0 0 0 0 0 0 0 0 0
0 0 0 0 0 0 0 0 0 0 0 0 0 0 0 0 0 0 0 0 0 0 0 0 0 0 0 0 0 0 0 0 0 0 0 0 0 0 0 0 0 0 0 0 0 0 0 0 0
0 0 0 0 0 0 0 0 0 0 0 0 0 0 0 0 0 0 0 0 0 0 0 0 0 0 0 0 0 0 0 0 0 0 0 0 0 0 0 0 0 0 0 0 0 0 0 0 0
0 0 0 0 0 0 0 0 0 0 0 0 0 0 0 0 0 0 0 0 0 0 0 0 0 0 0 0 0 0 0 0 0 0 0 0 0 0 0 0 0 0 0 0 0 0 0 0 0
0 0 0 0 0 0 0 0 0 0 0 0 0 0 0 0 0 0 0 0 0 0 0 0 0 0 0 0 0 0 0 0 0 0 0 0 0 0 0 0 0 0 0 0 0 0 0 0 0
0 0 0 0 0 0 0 0 0 0 0 0 0 0 0 0 0 0 0 0 0 0 0 0 0 0 0 0 0 0 0 0 0 0 0 0 0 0 0 0 0 0 0 0 0 0 0 0 0
0 0 0 0 0 0 0 0 0 0 0 0 0 0 0 0 0 0 0 0 0 0 0 0 0 0 0 0 0 0 0 0 0 0 0 0 0 0 0 0 0 0 0 0 0 0 0 0 0
0 0 0 0 0 0 0 0 0 0 0 0 0 0 0 0 0 0 0 0 0 0 0 0 0 0 0 0 0 0 0 0 0 0 0 0 0 0 0 0 0 0 0 0 0 0 0 0 0
0 0 0 0 0 0 0 0 0 0 0 0 0 0 0 0 0 0 0 0 0 0 0 0 0 0 0 0 0 0 0 0 0 0 0 0 0 0 0 0 0 0 0 0 0 0 0 0 0
0 0 0 0 0 0 0 0 0 0 0 0 0 0 0 0 0 0 0 0 0 0 0 0 0 0 0 0 0 0 0 0 0 0 0 0 0 0 0 0 0 0 0 0 0 0 0 0 0
Wind_Speed
15 13 5 1 2 9 17 15 14 11 11 18 17 16 15 13 11 8 6 13 13 9 13 18 26 28 28 28 28 27 27 26 26 26 24 21 19 16 14 13 13 14 13 13 13 12 12 11 10
11 10 3 1 7 11 14 14 17 19 14 12 15 14 14 12 8 4 7 12 12 9 10 17 25 26 27 27 28 28 27 27 27 26 25 24 23 22 19 17 15 14 13 13 13 13 12 11 11
11 7 1 6 13 11 11 11 12 20 21 12 10 11 10 8 6 5 8 12 10 9 9 17 25 25 26 27 27 27 27 27 27 27 26 25 25 24 23 21 19 16 14 13 13 13 13 12 11
5 1 6 13 19 16 13 12 9 12 14 15 12 11 8 5 3 5 8 8 10 11 12 16 26 27 26 27 27 26 27 27 26 27 27 26 25 24 24 23 22 20 18 16 15 14 12 11 11
3 5 11 13 14 12 15 16 19 20 12 14 14 10 7 2 2 3 5 10 12 12 13 16 27 28 28 27 27 26 26 27 26 26 27 26 25 24 24 24 24 23 22 20 17 15 14 12 11
2 6 10 13 15 13 14 17 15 17 13 11 8 10 6 4 4 5 9 10 11 13 13 15 25 28 29 28 28 27 26 27 26 26 27 26 25 24 24 24 24 24 23 22 20 18 16 14 12
8 9 11 13 11 9 9 10 15 11 12 12 8 8 6 8 7 7 9 9 10 12 13 15 15 19 25 27 28 28 26 26 26 25 27 26 25 25 24 25 25 24 24 23 22 20 18 16 14
2 7 11 10 9 7 8 8 9 11 10 9 12 9 6 8 9 9 9 9 11 13 14 16 15 16 16 16 24 27 26 26 27 26 26 26 23 23 24 23 24 25 25 24 23 22 21 19 16
6 9 9 7 7 8 9 8 8 10 13 14 14 13 10 9 9 9 10 11 13 16 14 14 15 15 15 15 19 20 21 23 23 19 25 21 11 11 14 21 24 25 25 24 25 25 24 19 15
9 6 8 10 10 11 12 11 9 10 14 13 11 12 10 9 10 11 14 15 16 16 15 14 14 14 14 14 12 9 11 11 12 12 13 10 10 11 16 21 23 24 24 23 24 26 22 16 9
8 8 9 12 14 13 12 12 11 10 11 11 9 10 9 10 11 13 13 13 12 12 14 15 14 13 13 11 10 8 7 7 9 12 13 11 10 9 10 9 12 13 15 11 15 15 12 11 10
9 13 10 10 10 11 10 8 11 13 8 8 8 8 9 11 12 12 12 12 11 11 14 14 14 13 12 11 9 9 8 8 8 9 12 10 9 10 11 9 10 9 8 9 10 9 12 13 13
10 10 14 16 17 16 16 14 12 10 8 7 8 9 9 10 10 10 10 11 12 13 14 15 15 15 14 10 9 10 9 9 10 8 9 11 9 10 11 10 10 10 9 10 10 10 12 13 13
13 15 13 12 10 9 13 10 7 6 6 6 7 7 8 9 10 10 11 12 13 13 14 14 15 15 14 11 9 8 8 8 9 9 10 11 9 9 10 11 10 10 10 10 10 11 11 11 11
16 12 10 7 8 10 10 9 7 5 4 5 6 7 8 8 9 9 10 10 11 12 13 15 15 15 16 14 11 9 8 9 7 8 9 11 11 10 10 9 9 9 10 11 10 10 9 11 12
9 7 7 8 8 7 5 5 7 4 3 4 4 6 6 8 9 8 9 9 10 11 12 13 14 15 14 13 11 8 8 10 8 7 8 11 13 13 11 10 9 11 10 10 10 9 10 10 11
7 5 8 6 1 3 4 7 6 3 3 3 4 5 6 7 8 8 8 9 10 11 12 12 12 13 13 12 11 10 9 9 9 7 7 10 11 13 12 10 10 12 10 10 11 10 10 11 11
5 5 6 8 3 2 1 8 7 4 1 2 4 5 5 6 7 7 8 9 10 10 11 11 12 12 12 9 9 7 8 8 8 7 8 11 10 12 11 9 13 13 10 9 10 12 11 10 11
5 5 5 5 2 1 4 8 7 5 3 3 5 5 5 5 6 7 8 9 9 9 11 11 12 12 10 9 10 10 10 9 8 7 11 11 11 12 10 9 11 12 11 12 13 12 13 11 10
4 5 4 5 3 2 3 6 8 6 4 4 3 3 4 6 7 8 8 8 8 8 10 11 11 12 11 9 9 8 10 9 8 8 9 10 11 12 12 10 9 11 10 12 13 13 10 10 10
2 4 4 2 5 3 2 6 10 8 5 5 3 2 6 8 8 8 8 8 7 8 10 11 10 11 11 11 8 9 8 7 7 9 7 9 11 11 10 10 9 10 9 9 12 12 12 11 9
3 5 5 3 2 4 7 3 8 9 7 6 2 6 7 6 6 7 8 8 7 7 7 9 9 9 9 9 9 11 10 10 11 9 9 10 11 11 10 10 10 10 9 10 11 12 11 12 10
4 2 4 5 4 4 6 4 5 8 7 5 6 6 5 6 7 8 8 7 7 7 7 7 8 8 8 9 9 9 9 8 8 9 10 10 9 10 11 11 10 10 9 10 12 13 12 10 10
7 6 6 4 3 5 4 6 4 2 5 7 6 5 5 6 7 7 7 7 6 7 6 7 8 9 9 9 9 9 10 10 11 11 10 10 9 8 10 13 10 11 9 11 12 12 13 11 12
6 6 2 2 4 3 1 1 6 7 9 6 4 5 6 7 7 7 7 7 7 7 7 8 9 9 9 9 9 9 9 9 10 11 10 11 10 9 10 13 11 10 10 12 12 13 13 13 13
5 5 4 4 5 6 3 3 6 8 5 3 4 5 6 7 6 7 7 7 7 7 8 8 9 9 9 9 9 9 9 7 7 9 10 9 9 9 10 12 12 12 13 14 12 12 13 12 13
5 5 2 3 6 6 1 7 5 5 4 3 4 5 6 6 6 6 6 6 6 7 7 8 9 10 10 10 10 9 9 8 9 9 9 7 9 11 12 12 13 13 14 14 13 11 14 13 13
2 3 3 3 5 6 8 2 5 5 2 4 4 5 6 6 6 6 6 6 6 6 6 7 8 9 9 9 10 12 9 9 9 9 10 10 11 12 12 12 13 14 14 14 13 13 14 16 14
1 2 2 3 4 3 7 2 5 6 2 2 4 5 6 6 6 6 6 6 6 6 6 7 7 8 8 9 9 10 9 9 9 9 10 10 10 12 12 13 14 15 15 14 13 15 17 17 14
2 3 2 3 4 3 5 1 6 6 3 4 4 5 6 6 6 6 6 7 6 7 7 7 7 8 9 9 9 10 10 10 10 10 11 12 12 10 12 13 14 16 16 15 15 16 18 16 13
Wind_Direction
308 296 275 253 68 69 64 51 46 60 78 61 59 68 73 55 43 68 287 301 325 348 7 6 19 24 24 25 24 23 22 21 18 15 10 4 357 349 344 340 338 335 333 331 327 323 315 304 298
302 300 302 292 82 79 68 57 49 43 95 89 60 57 65 65 48 28 311 319 332 356 18 12 20 24 25 25 24 23 22 21 20 16 12 10 8 3 356 350 344 336 330 328 323 317 312 304 293
278 271 309 48 60 60 60 46 79 62 50 64 73 48 49 41 21 346 315 323 343 5 21 17 19 21 24 23 23 23 21 20 20 18 15 11 9 8 7 2 356 349 338 328 321 313 309 307 300
289 258 69 74 73 49 45 29 29 83 58 54 79 70 70 36 338 303 312 345 9 16 15 18 19 17 18 20 18 19 19 17 18 16 13 12 11 10 9 8 4 358 349 336 325 316 308 308 306
223 77 82 85 81 65 43 46 50 57 57 60 78 89 86 41 261 295 5 23 21 16 13 13 17 14 12 14 13 12 14 12 13 14 11 9 9 9 9 10 7 1 354 346 336 325 313 307 305
259 92 95 95 99 90 60 40 54 59 53 36 85 102 77 38 16 47 38 33 26 16 14 12 13 11 8 6 9 6 8 8 6 10 8 5 5 5 6 7 3 360 356 351 343 334 323 312 305
68 83 101 108 100 75 61 59 45 55 43 14 16 89 80 33 21 39 46 33 27 22 17 14 11 10 6 2 5 2 3 6 1 5 5 2 1 1 1 2 358 357 355 352 346 338 329 317 306
24 100 97 95 88 89 77 68 55 44 49 28 29 63 59 27 28 27 35 33 24 24 18 15 8 9 4 356 1 359 359 3 359 1 2 0 358 357 356 357 353 354 352 349 349 346 335 323 309
51 72 51 42 98 109 118 105 88 81 80 69 63 65 59 38 32 29 26 24 22 20 16 14 7 7 3 356 357 355 356 360 356 356 358 357 352 352 352 350 350 352 349 349 350 346 339 331 312
39 66 56 46 81 93 84 82 99 84 68 69 67 59 52 47 35 29 26 20 17 14 10 11 4 3 3 357 356 350 353 354 351 350 353 354 352 350 353 344 346 348 346 351 348 344 342 341 327
54 88 94 75 85 91 83 62 59 99 63 56 57 55 43 43 41 32 27 22 16 10 9 8 2 1 1 355 353 350 348 350 347 347 355 356 353 349 350 341 340 340 343 349 345 343 336 331 326
80 67 90 92 94 94 88 83 65 67 87 79 68 57 49 40 40 34 24 18 13 10 10 7 0 360 358 353 351 351 348 348 345 345 356 0 355 350 348 340 336 337 341 344 342 332 328 329 325
85 83 75 81 81 84 89 89 93 94 99 94 79 63 53 49 39 36 25 19 12 10 9 7 360 2 355 352 351 352 347 348 343 342 353 6 357 349 346 336 337 335 344 341 332 328 331 329 323
111 116 117 114 111 105 103 103 98 109 117 108 90 72 61 53 46 31 26 19 12 9 9 5 360 1 354 350 350 347 345 343 341 340 351 7 357 347 343 336 334 339 342 334 328 330 331 327 325
126 120 122 125 118 141 129 94 103 126 131 103 91 84 72 60 53 36 28 22 12 8 9 6 359 358 353 346 347 349 345 340 335 339 349 2 355 347 342 335 333 340 335 330 331 330 334 332 329
161 155 137 151 161 175 259 127 133 143 123 96 78 72 61 59 50 39 29 26 16 10 9 6 0 356 350 344 347 347 347 339 334 341 351 357 353 349 342 335 336 340 335 332 333 338 340 335 329
198 213 126 141 149 169 237 123 145 166 165 117 77 61 54 50 43 36 28 32 22 14 5 2 0 356 349 347 347 342 343 338 335 344 351 351 351 347 340 333 338 338 334 335 335 339 339 334 329
1 4 107 121 110 221 142 122 145 176 206 88 67 50 44 46 41 35 29 37 26 16 4 359 359 355 348 349 342 337 340 336 334 343 349 347 348 344 336 335 339 336 332 332 331 334 335 329 326
3 1 69 109 131 229 161 150 160 174 184 58 40 21 16 38 37 35 34 39 24 15 5 356 359 353 350 351 344 342 340 336 333 343 345 343 346 341 336 343 338 335 331 330 330 331 329 329 329
351 346 59 128 140 234 174 181 161 172 133 73 349 341 7 27 23 21 28 34 21 15 7 355 359 351 351 350 341 339 331 328 332 339 334 339 343 338 339 341 336 331 327 327 328 328 326 327 334
355 35 349 326 134 234 223 218 171 162 148 173 224 21 35 27 16 13 23 24 16 17 11 355 351 349 348 347 341 338 330 330 335 335 331 338 338 333 334 336 334 327 326 322 324 323 327 322 319
29 35 321 283 203 213 177 257 163 164 182 192 128 53 38 27 16 21 22 15 14 19 11 352 344 345 345 346 342 342 341 337 335 332 329 334 332 329 333 335 332 328 325 322 322 324 319 316 312
326 340 280 275 236 262 195 244 137 155 187 148 74 50 34 24 25 29 20 8 15 20 8 350 341 342 343 344 339 338 334 330 327 328 329 330 327 328 333 334 331 326 322 323 322 320 314 310 304
287 259 227 256 240 260 198 189 145 170 127 86 51 33 28 23 28 28 12 5 16 14 1 347 342 342 343 343 338 337 333 332 331 333 331 329 327 329 332 331 328 322 322 324 320 316 312 306 301
338 332 298 258 226 223 117 225 94 87 79 71 33 26 28 24 27 18 7 7 10 0 355 349 347 343 343 341 339 334 332 331 330 332 328 327 329 330 326 329 324 322 324 322 321 319 313 307 301
326 3 22 320 310 312 244 124 109 111 113 104 47 38 29 30 31 20 12 10 2 354 353 349 345 341 341 340 337 330 332 330 326 326 323 325 325 322 322 327 324 325 326 323 320 318 314 311 307
349 38 6 283 277 276 306 97 133 140 159 78 35 31 31 36 31 17 11 7 360 354 353 346 342 339 339 337 334 329 332 327 324 322 321 322 323 323 326 326 329 328 325 321 322 318 314 314 308
20 338 318 304 325 306 296 106 160 159 90 26 14 25 31 35 24 16 11 3 358 353 348 343 339 335 333 335 334 334 327 326 326 325 325 326 324 322 324 329 330 327 324 322 324 319 313 313 307
211 226 282 270 240 267 295 316 107 125 120 27 20 36 40 33 26 17 7 0 353 349 345 339 336 334 334 332 329 326 324 327 329 327 326 324 321 324 328 331 330 328 324 323 323 320 316 313 309
323 328 332 297 305 283 277 283 140 150 131 69 34 44 51 41 31 18 5 354 348 347 343 340 336 337 334 330 328 325 328 329 329 327 328 324 320 324 329 330 329 327 324 320 320 318 318 313 313